Theta_e
359 359 361 363 363 364 362 365 365 365 366 350 354 361 359 366 365 368 369 367 367 362 359 360 358 356 362 362 361 360 359 364 363 355 355 363 361 358 360 360 361 360 360 359 357 354 352 355 354 355 355 355 355 355 355 355 355 355 354 348 342 340 342 344 344 345 343 341 341 340 337 340 344 348 349 348 348 347 349 351 353 353 353 354 352 350 347 345 343 343 342 343 344 345 346 348 350
359 362 363 363 361 362 364 369 365 358 358 348 354 364 360 367 366 366 368 367 368 363 357 356 358 357 358 358 356 360 360 358 360 360 360 361 358 359 359 361 361 359 360 357 356 354 353 356 356 357 356 356 357 356 356 356 355 354 350 341 338 340 342 342 345 348 348 347 348 347 342 343 349 352 352 353 353 353 352 351 352 353 354 354 353 351 349 348 346 346 345 345 345 346 346 347 348
361 364 362 360 362 361 364 369 360 348 349 348 351 365 366 369 370 366 365 366 366 360 356 357 358 358 359 361 359 363 363 356 355 358 358 359 359 359 359 361 360 359 359 356 357 355 354 356 357 358 357 357 357 356 357 356 355 352 344 340 345 347 345 345 347 350 352 352 352 351 347 346 347 347 348 352 353 353 352 350 351 352 353 354 353 352 349 348 346 346 346 346 348 348 348 348 348
362 364 361 360 365 363 366 366 359 343 341 345 347 362 370 368 370 365 364 363 359 359 356 357 360 357 360 364 361 362 362 356 356 357 358 360 360 359 359 360 360 359 358 358 359 356 354 355 357 359 359 358 356 357 357 356 354 348 344 346 349 347 343 344 347 351 352 353 353 353 352 349 347 346 346 349 349 348 349 349 349 350 351 352 352 352 350 348 348 347 347 347 349 349 349 349 349
361 364 361 359 364 365 367 365 359 344 342 349 347 362 370 365 368 364 364 359 358 362 356 358 361 357 359 362 362 363 361 356 356 357 359 360 359 359 358 360 360 359 358 358 360 357 353 354 358 359 359 358 357 357 356 355 351 349 351 350 347 347 348 348 348 352 353 354 354 354 354 353 351 351 351 351 351 350 350 348 347 347 347 349 352 352 351 350 349 348 348 348 349 350 349 348 349
361 363 361 362 363 363 365 355 347 343 352 361 355 364 369 365 369 363 363 361 360 359 356 359 359 358 361 360 359 361 359 357 356 357 360 360 359 358 357 358 359 359 359 359 360 357 353 355 358 358 358 358 357 356 355 353 350 352 355 349 348 353 352 351 350 351 352 352 352 352 353 353 352 352 352 352 352 352 349 347 346 347 348 350 351 352 351 351 351 349 349 350 350 349 349 348 348
362 360 363 366 364 367 363 345 340 346 355 366 363 367 367 366 367 363 364 364 362 359 358 359 356 360 362 360 358 359 358 358 357 357 359 359 357 358 357 358 359 360 360 360 360 356 353 355 357 358 358 357 357 356 354 351 350 353 352 350 352 353 351 351 351 348 349 351 350 349 352 352 352 351 350 350 352 351 349 349 349 349 349 350 351 352 351 351 351 350 350 351 350 349 348 348 348
360 360 363 366 365 368 356 339 345 353 357 362 365 366 366 367 365 364 366 364 364 362 362 360 356 363 362 360 362 361 358 358 356 356 359 358 357 357 358 359 360 360 359 361 360 356 353 355 356 358 358 357 357 355 352 351 352 352 348 350 352 349 351 354 350 346 348 352 351 348 351 352 351 351 350 351 351 351 351 351 352 352 352 351 351 352 351 351 351 350 350 351 350 349 347 347 348
357 358 360 364 361 353 342 339 349 359 363 363 364 366 366 366 363 364 365 363 364 363 363 360 357 365 363 363 364 361 359 357 356 357 359 357 356 357 358 360 360 359 358 360 359 354 354 355 355 357 357 356 356 354 352 351 352 351 348 351 351 350 353 353 348 345 349 352 351 349 350 352 352 351 350 351 351 351 352 353 353 352 352 350 350 350 350 350 350 350 350 351 350 349 348 348 348
351 355 358 359 348 335 331 338 347 357 362 360 365 367 367 365 364 365 364 363 364 364 362 357 357 363 363 363 363 360 359 357 356 358 358 357 356 357 359 359 359 359 359 360 357 354 355 355 355 356 357 356 356 355 353 351 351 351 351 351 352 353 354 351 344 343 346 349 350 349 349 351 352 351 351 351 352 352 353 353 353 352 350 349 348 349 349 349 350 350 350 351 350 349 348 349 348
347 351 357 349 334 326 327 334 341 353 357 356 363 364 366 365 365 364 363 363 363 365 364 359 361 362 363 365 362 360 360 357 357 358 358 357 356 357 357 358 358 358 359 360 355 355 356 355 355 355 356 356 356 355 353 352 351 352 353 351 351 354 353 347 343 341 343 345 347 348 349 350 351 351 352 352 352 352 352 353 353 352 350 349 348 348 349 350 351 350 350 351 349 349 347 347 347
344 347 356 342 330 331 333 335 340 351 354 357 362 361 363 365 366 364 364 364 362 365 365 363 362 362 365 366 362 360 360 357 356 358 358 357 357 357 357 357 357 358 359 360 356 356 356 355 356 355 355 356 355 354 353 353 352 353 353 349 350 352 346 340 343 344 344 346 346 346 346 348 348 348 349 350 351 352 352 352 352 351 350 349 347 348 349 350 351 350 348 347 347 346 345 344 344
342 344 350 338 334 339 337 337 344 350 349 358 362 361 361 364 368 365 364 364 363 366 365 362 358 362 366 364 361 359 359 357 357 358 358 357 357 357 357 357 357 358 359 359 358 357 356 356 356 356 356 356 356 355 353 354 353 353 352 348 350 350 339 337 346 350 348 349 348 346 346 346 345 346 346 348 350 351 351 350 349 349 350 349 348 348 348 350 350 348 346 345 344 345 346 344 342
342 345 346 339 339 341 338 338 344 344 343 354 361 361 360 362 366 363 363 364 365 365 363 361 358 363 365 364 362 359 359 356 356 357 357 358 357 357 357 357 357 359 359 358 358 358 357 357 357 356 356 357 357 355 355 355 353 352 351 347 349 348 340 343 351 352 350 349 347 346 348 348 348 348 349 350 350 351 349 348 348 348 350 350 348 348 347 351 350 345 346 344 343 344 345 345 342
340 342 347 340 336 337 337 338 342 342 342 354 359 362 363 359 360 361 362 365 365 361 360 362 359 362 362 364 364 359 358 356 356 357 356 358 357 357 356 357 358 358 358 357 358 358 358 358 358 357 357 358 357 356 355 355 353 351 350 348 348 346 342 349 352 350 351 349 344 345 349 350 350 351 352 352 351 351 350 350 350 347 350 351 349 348 348 351 349 345 344 343 342 343 343 343 343
337 341 345 337 331 331 335 341 343 340 343 353 356 360 365 359 358 361 359 361 362 360 360 361 357 359 359 361 362 358 358 356 356 356 356 357 356 356 356 357 358 357 358 358 358 358 358 358 358 358 357 358 357 356 355 354 352 350 349 348 348 345 342 347 349 347 351 347 341 343 348 350 352 354 354 354 353 352 351 351 350 347 348 350 348 349 349 350 348 346 344 342 342 341 343 343 344
336 340 340 330 329 330 334 343 341 339 345 351 353 356 359 358 358 358 356 357 362 361 360 358 356 358 358 360 359 357 357 355 355 356 356 356 355 355 356 358 358 357 358 357 358 357 357 358 358 358 357 358 357 356 355 353 352 350 350 349 348 346 343 344 342 346 350 345 342 345 348 353 354 354 354 356 356 354 353 351 349 347 348 348 348 348 349 350 348 347 344 343 344 343 344 345 347
335 340 335 326 330 334 337 343 341 342 348 350 353 355 354 358 358 355 357 359 362 362 359 359 360 361 360 359 357 357 356 355 355 355 357 357 355 355 357 358 357 357 357 357 357 357 357 357 357 357 357 357 356 356 356 355 353 351 350 348 347 345 346 344 337 342 348 344 345 345 349 355 356 354 352 355 357 355 354 351 349 349 349 348 348 348 348 349 350 348 344 342 344 345 344 345 348
335 337 333 328 335 338 339 341 341 343 347 352 355 355 355 356 355 352 361 362 362 365 363 361 362 362 360 357 357 358 356 356 356 356 357 357 356 356 357 358 358 357 357 356 357 357 357 356 357 357 356 357 356 355 356 356 353 352 352 348 346 345 345 345 338 340 346 349 348 347 351 356 357 356 351 353 357 355 353 350 350 353 354 350 348 347 347 350 352 351 346 342 343 344 343 344 346
332 333 332 332 335 337 339 339 342 343 346 351 352 354 357 353 352 352 361 362 362 366 363 362 364 362 359 356 356 357 356 356 356 357 357 357 357 356 357 358 358 357 357 356 357 358 357 357 357 356 356 355 356 355 356 357 353 352 354 351 348 346 345 345 345 345 346 352 353 350 354 357 357 357 352 352 355 353 351 350 352 356 356 354 351 350 351 353 353 352 349 346 348 347 345 346 349
331 332 332 333 333 335 338 340 342 342 346 350 350 354 356 351 352 354 359 361 361 365 362 362 364 361 357 355 354 356 355 356 356 357 357 357 357 357 358 358 357 358 357 356 357 357 356 357 357 356 357 355 356 356 355 356 354 353 355 354 351 349 347 346 350 350 347 351 354 353 355 355 355 356 354 353 354 352 352 354 355 357 356 355 354 355 356 355 352 351 351 349 350 350 348 347 350
330 332 332 331 332 334 337 339 342 343 348 352 351 354 352 353 356 354 358 361 360 362 361 360 361 359 356 355 354 355 355 354 356 356 356 356 356 356 356 356 356 357 357 356 357 357 357 357 356 356 358 355 355 356 355 355 353 353 354 354 352 351 352 350 351 353 351 351 353 354 354 353 351 353 354 353 354 354 354 354 354 355 356 354 355 357 355 352 351 350 351 350 349 348 346 346 348
332 333 332 331 330 334 337 338 344 344 348 354 354 353 350 356 361 357 355 359 357 357 357 356 358 358 356 356 355 354 354 352 355 356 355 356 355 355 355 355 357 357 357 357 357 358 357 357 356 357 358 356 356 355 355 355 352 353 353 352 352 351 352 352 351 352 352 353 354 355 354 352 349 350 352 352 353 354 354 353 351 352 353 352 354 357 352 348 350 349 349 349 348 346 345 345 348
332 333 332 331 329 335 336 338 345 345 350 356 355 354 353 356 358 356 353 355 351 353 356 355 356 358 355 354 354 354 354 353 354 355 354 356 355 355 356 356 356 356 356 358 358 358 357 357 356 357 358 357 357 354 354 354 352 353 353 352 353 351 351 352 352 351 351 353 355 354 353 352 349 348 350 351 353 354 354 352 351 351 351 349 350 353 350 347 350 349 347 348 347 347 348 347 349
332 333 331 330 330 336 335 340 349 349 355 358 356 357 354 354 357 355 354 352 348 351 356 356 355 356 355 354 355 355 355 355 354 356 354 354 355 355 356 356 356 355 356 357 357 357 358 357 355 355 356 356 356 353 352 353 352 353 354 352 353 352 352 352 352 353 352 352 355 354 353 352 349 347 349 350 351 352 352 352 351 351 349 348 349 349 349 349 350 347 347 349 348 349 350 348 350
330 329 330 330 329 336 335 341 351 350 357 359 358 360 356 355 358 355 352 350 348 348 354 357 355 354 356 355 354 355 356 355 353 354 354 353 354 355 356 355 356 356 356 356 355 356 358 357 354 354 354 355 357 354 351 353 353 354 353 351 351 350 351 350 351 352 351 351 354 354 354 352 348 347 348 348 349 350 352 352 351 349 347 347 347 347 349 350 349 348 347 347 347 348 349 349 351
330 329 330 329 329 335 333 336 348 350 356 358 356 359 357 357 360 353 349 350 349 348 352 358 358 357 357 356 354 353 356 356 355 353 354 354 353 354 355 355 355 355 356 356 355 354 357 357 353 353 354 355 357 355 352 351 353 354 353 351 350 351 351 350 350 350 349 350 352 354 354 352 349 349 349 348 349 351 352 352 350 347 345 346 347 348 349 350 350 349 348 346 348 348 349 350 351
330 330 329 330 332 335 335 335 343 348 353 355 354 358 356 357 359 355 347 346 349 349 348 354 360 359 356 356 355 353 355 358 357 356 354 355 353 353 354 355 354 355 356 354 355 354 354 355 352 353 355 354 355 355 353 351 352 353 353 352 351 353 354 352 352 351 350 350 351 352 353 353 352 351 350 349 351 352 352 350 348 347 345 347 349 349 349 351 351 350 348 349 350 350 351 350 350
329 330 330 331 332 335 340 337 337 343 348 350 356 359 360 364 358 352 349 345 349 351 350 350 356 358 354 355 355 354 356 357 358 357 356 355 353 353 352 352 353 353 356 354 356 355 353 354 352 353 355 354 355 355 353 352 351 353 352 352 353 353 354 354 354 353 352 353 353 351 353 355 355 353 352 352 352 352 351 348 347 346 345 347 351 351 351 351 351 350 350 350 351 352 351 350 348
330 331 332 330 329 333 339 340 338 341 348 354 358 347 350 367 356 347 351 347 348 352 352 351 350 355 355 354 354 355 356 357 358 356 356 355 353 353 352 352 353 352 353 353 354 355 354 354 352 353 355 355 355 354 354 353 352 354 353 353 354 352 353 353 352 352 352 354 355 353 354 357 356 354 353 353 353 352 350 348 347 346 346 348 351 352 351 351 351 351 350 349 350 351 350 349 347
332 329 330 329 322 325 335 339 338 342 354 360 354 335 338 361 356 347 351 347 350 352 350 351 350 354 356 355 356 354 354 356 357 357 356 356 354 353 353 352 352 352 352 352 352 353 352 353 352 352 354 354 354 354 355 355 355 355 354 354 353 352 353 352 351 351 350 351 353 354 355 357 355 353 353 353 354 353 350 348 348 347 347 350 352 352 352 352 352 350 349 348 348 349 349 349 347
333 322 319 326 320 323 334 336 333 340 353 356 344 330 333 354 356 348 350 349 350 352 352 352 351 353 355 357 357 354 354 354 354 357 356 356 356 355 353 353 352 352 352 351 351 352 352 352 352 352 353 353 352 355 357 356 356 355 354 354 352 352 352 351 351 351 350 350 353 354 355 357 355 354 354 354 355 353 351 348 347 346 349 352 352 352 352 351 350 350 350 348 347 348 348 349 348
330 322 313 319 319 321 329 333 333 337 347 352 343 333 335 351 356 352 356 359 356 355 356 353 351 354 355 357 357 355 356 354 354 356 355 356 356 355 354 353 353 352 352 352 352 352 352 352 352 352 352 355 355 355 357 357 355 354 354 353 351 351 350 350 350 351 352 352 353 354 355 357 355 355 355 355 355 354 350 348 347 345 349 354 352 351 352 351 350 349 349 348 349 349 348 348 348
321 323 317 319 321 319 322 329 336 332 340 353 350 338 338 349 355 355 363 371 364 355 355 354 351 352 355 356 355 356 355 354 360 360 357 357 356 356 356 354 354 353 353 353 353 352 353 353 353 352 352 354 356 355 356 357 355 353 352 352 351 351 351 351 351 352 352 352 353 353 354 355 355 356 356 356 355 353 350 347 346 347 350 352 352 351 351 350 350 349 348 348 349 349 349 348 348
315 317 315 317 320 320 320 325 333 332 334 345 346 338 341 348 352 354 357 365 362 356 357 357 352 350 353 355 358 363 357 352 360 358 356 357 357 357 356 356 356 355 356 354 355 353 352 353 354 354 354 354 355 355 355 355 355 354 353 354 353 352 352 352 352 352 352 351 352 351 353 355 355 356 356 357 356 354 352 348 346 350 352 352 351 352 350 349 349 349 349 348 347 348 349 349 349
321 320 318 315 315 319 324 328 329 330 329 335 339 335 343 350 350 355 353 355 365 369 365 358 355 354 352 351 359 365 359 353 359 358 357 356 354 355 356 359 358 357 359 357 358 356 353 353 356 356 354 354 356 356 356 356 355 355 354 355 354 353 353 352 352 352 351 350 350 351 354 355 354 355 356 357 356 355 354 350 348 352 354 353 352 352 350 349 350 350 351 350 349 349 348 348 348
327 323 320 319 317 318 325 330 330 330 327 329 335 334 343 351 349 355 352 351 365 370 363 356 354 354 354 350 354 358 357 357 361 360 357 353 353 355 357 360 360 359 360 359 361 361 356 353 354 356 355 355 358 358 358 356 355 356 355 354 354 353 353 352 352 352 352 351 349 350 353 353 354 355 356 357 356 355 355 353 350 351 354 352 351 351 349 350 352 352 352 349 348 349 348 347 347
328 323 320 319 318 320 327 330 331 332 328 326 335 338 343 351 349 352 353 352 357 358 361 359 355 356 356 354 353 357 359 357 359 360 355 352 354 355 358 362 362 361 361 361 364 363 360 356 355 356 356 356 358 359 358 356 355 356 355 355 353 353 353 352 352 352 352 351 348 350 353 353 354 355 356 357 357 356 356 355 351 351 353 352 351 350 351 352 354 353 350 349 348 348 347 346 347
326 325 320 316 319 323 325 329 332 332 328 327 335 341 344 349 347 349 352 354 356 355 360 361 359 363 358 352 354 359 361 360 360 359 354 352 354 355 358 363 361 359 361 362 364 363 360 361 358 356 358 358 358 358 358 357 356 356 356 355 353 353 354 353 352 352 351 349 347 350 353 353 354 356 357 357 358 357 356 355 353 352 353 353 352 352 353 352 352 351 350 349 348 348 347 347 347
326 324 317 314 321 321 317 324 331 331 328 328 334 342 346 350 347 349 352 355 360 358 358 360 362 364 356 351 357 360 361 364 362 358 355 355 355 356 357 361 361 358 361 362 364 363 360 362 359 357 359 358 358 357 357 357 356 356 356 354 354 354 354 353 352 351 349 347 347 349 353 353 354 356 357 357 357 356 354 353 352 352 353 353 353 352 354 352 351 351 350 349 349 350 349 348 347
325 326 320 317 322 321 319 324 329 328 328 332 332 329 335 348 348 351 352 354 358 357 356 358 357 358 358 358 359 360 361 363 361 356 356 357 357 357 356 360 360 358 361 362 361 363 362 362 361 359 360 359 358 358 357 357 355 355 355 355 355 354 352 352 351 350 349 348 348 349 352 354 354 355 356 356 356 355 353 352 351 351 352 354 354 353 353 353 351 350 348 348 349 350 349 349 350
320 326 327 325 325 325 324 327 325 318 318 329 327 316 322 343 349 349 352 354 356 353 354 356 355 357 365 366 359 357 360 359 360 357 356 358 357 356 354 355 358 358 361 361 360 362 362 362 362 360 360 360 359 358 357 357 355 355 355 356 356 354 353 353 351 350 350 349 349 349 351 353 354 354 354 354 354 353 353 352 352 352 352 353 354 354 352 352 351 349 347 346 346 347 349 351 352
314 324 329 329 329 325 323 324 320 311 312 327 329 318 318 332 340 347 351 353 355 354 355 356 356 358 362 364 357 355 357 356 359 359 357 358 357 356 355 354 356 358 359 359 359 360 360 361 361 360 360 360 359 359 358 357 356 356 356 356 356 355 354 354 353 351 350 348 348 349 351 352 353 353 352 352 352 352 351 352 353 353 353 353 354 354 352 352 350 348 347 345 345 346 348 352 353
315 325 330 329 329 326 325 323 317 315 318 325 328 325 320 323 333 345 348 351 355 354 354 354 354 356 358 359 356 354 354 353 357 358 356 357 356 356 358 359 359 358 359 358 358 360 360 360 360 360 360 359 358 358 358 359 359 357 357 357 356 355 355 355 354 353 350 349 348 348 349 351 352 353 351 351 350 351 350 352 353 354 355 353 352 353 352 352 350 348 347 346 346 346 348 351 351
322 329 329 328 328 327 327 322 317 320 318 314 320 323 320 321 332 344 347 350 355 354 354 354 354 354 355 357 355 352 352 352 352 354 355 358 358 356 357 359 359 359 359 358 358 360 360 360 361 360 358 357 358 358 357 358 356 355 357 358 356 354 354 354 355 354 353 350 348 348 348 349 351 352 351 350 349 351 350 352 354 356 356 354 352 352 352 352 350 349 348 347 348 348 349 350 349
327 329 328 327 328 327 327 324 318 318 315 310 314 318 319 323 330 339 347 349 352 355 353 353 354 353 353 355 355 351 352 353 351 352 355 356 358 359 356 354 355 359 361 359 359 360 359 359 360 358 357 357 357 357 357 356 353 353 356 358 356 354 355 354 354 355 353 351 349 348 347 347 349 351 352 350 349 350 351 351 354 356 358 356 353 352 352 351 349 349 348 350 352 351 350 350 350
328 327 327 326 327 327 327 324 318 314 312 311 315 317 322 326 332 339 347 351 352 355 354 353 354 352 352 354 353 350 351 355 354 353 355 355 356 358 357 355 355 357 359 359 360 360 359 359 359 358 356 356 357 358 357 356 356 355 356 358 356 354 355 354 353 353 352 351 350 350 349 348 348 350 352 351 349 350 350 352 353 355 358 357 354 353 352 351 349 348 349 350 352 352 352 351 351
327 327 325 319 319 321 319 317 317 314 311 313 317 321 324 327 337 346 351 354 353 354 354 352 352 352 352 352 351 350 351 353 352 353 354 355 355 356 356 356 355 354 355 357 360 361 361 360 359 360 358 357 357 357 357 356 356 356 357 358 356 354 354 353 355 354 352 353 352 351 351 350 349 350 351 352 350 350 350 351 353 354 355 355 354 352 351 350 349 348 349 349 350 352 353 353 352
327 326 320 313 312 314 313 312 314 312 312 315 318 324 329 333 342 350 354 354 352 353 353 351 351 352 351 350 350 351 351 351 351 351 351 351 354 355 355 354 354 355 357 359 360 360 361 360 358 358 357 357 357 355 354 357 357 357 358 357 355 355 354 355 358 356 351 353 355 353 354 353 351 350 351 353 351 350 350 351 353 354 353 353 352 352 351 350 349 348 348 349 352 354 355 355 355
326 322 315 311 311 312 313 313 313 313 312 315 321 329 332 337 345 353 356 351 350 353 351 350 351 350 349 348 350 352 352 351 349 350 350 348 350 353 355 354 355 357 358 360 360 356 354 353 353 354 354 355 355 354 354 357 358 358 358 354 353 356 356 358 360 357 352 354 355 355 354 353 353 352 352 353 353 352 351 352 353 353 353 352 350 350 351 350 350 350 350 351 353 355 356 356 358
328 329 322 314 312 313 313 312 312 313 311 313 323 329 328 334 345 353 352 348 350 351 349 349 349 348 348 348 350 351 352 353 349 347 348 347 348 351 353 354 354 355 354 354 357 356 353 352 351 352 353 352 354 355 356 357 357 358 357 353 353 355 356 357 357 354 354 355 355 355 355 354 353 353 353 353 352 352 352 352 353 352 353 352 351 350 350 352 352 353 353 353 352 354 357 358 358
328 332 324 315 317 317 313 312 312 311 311 316 325 329 332 340 348 349 347 347 347 347 348 349 349 350 350 349 351 350 350 352 351 348 348 347 346 347 349 351 351 351 350 349 351 354 355 355 353 351 352 351 351 353 355 355 356 357 357 354 354 356 357 355 352 352 353 354 355 355 355 354 353 353 354 352 351 352 352 353 352 352 353 352 351 351 351 353 354 355 356 355 354 355 357 358 358
325 323 318 320 327 324 312 311 314 311 312 320 326 330 337 343 346 347 346 347 346 346 347 349 349 351 350 350 350 348 349 350 351 351 351 352 351 347 345 347 349 349 349 349 349 350 351 352 352 351 350 350 350 352 355 354 354 356 357 356 357 359 358 354 350 350 352 354 355 354 353 354 352 351 353 352 351 351 351 352 352 352 353 352 352 352 352 355 356 356 356 356 356 355 355 357 357
324 317 320 327 328 325 317 312 314 313 315 321 324 327 332 334 341 350 349 348 348 347 348 349 350 349 348 348 347 345 346 346 347 350 351 352 353 352 348 346 347 346 348 351 350 350 349 349 351 351 350 351 352 353 354 353 353 355 357 357 358 358 357 354 349 349 351 353 354 354 354 353 350 349 350 350 351 351 351 352 351 352 352 352 353 354 354 356 357 357 356 356 357 357 356 356 357
330 324 328 327 316 315 317 313 313 313 313 318 321 326 331 333 340 349 350 350 350 349 349 348 348 347 346 345 344 344 344 343 345 346 349 351 351 351 352 351 350 348 350 352 352 352 351 349 350 351 351 352 351 351 353 354 352 353 355 357 357 358 357 355 351 349 351 353 353 354 354 352 350 349 350 350 351 351 351 351 351 351 352 353 354 354 355 357 358 358 357 357 358 359 357 354 355
332 329 330 328 320 316 316 314 315 312 311 316 321 330 339 342 348 351 351 353 351 349 350 348 346 346 344 344 344 344 343 343 343 343 346 349 349 350 350 352 354 353 353 354 353 354 354 352 350 351 352 353 353 353 354 355 353 352 353 355 356 357 357 356 354 352 352 354 354 354 353 352 350 349 351 351 351 351 352 353 354 353 352 353 353 354 355 357 358 358 359 358 359 359 357 354 354
327 323 321 323 322 322 321 318 315 313 314 316 320 334 344 348 351 353 351 351 349 347 349 347 345 344 343 344 343 342 343 342 341 342 343 345 347 348 349 350 353 353 353 353 352 353 354 353 352 351 351 352 353 354 354 354 354 352 353 354 355 357 357 357 357 355 354 354 354 354 353 352 351 350 351 352 352 352 351 352 353 353 353 353 353 353 354 355 356 357 359 358 358 359 359 358 359
329 322 320 322 321 319 317 317 317 315 316 314 314 332 345 348 348 351 348 348 348 345 346 345 345 344 343 344 342 341 342 341 340 341 341 342 343 343 345 347 349 353 354 353 352 352 352 353 354 353 352 352 353 354 352 352 354 353 353 354 355 356 356 357 357 355 354 355 354 355 354 353 352 352 353 353 353 352 351 352 352 351 352 352 352 352 352 353 355 356 357 358 359 360 360 361 361
Wind_Speed
3 3 3 3 2 1 2 0 0 0 0 3 3 0 3 5 5 2 3 3 0 4 4 6 7 7 7 8 11 11 10 7 4 2 4 9 21 23 22 26 27 25 25 24 23 25 25 24 23 21 20 20 19 18 18 18 18 18 16 15 15 16 17 16 16 16 15 15 17 17 18 17 17 17 17 19 18 19 18 17 15 14 13 12 12 12 12 12 12 11 10 9 7 7 7 8 10
4 4 3 1 1 2 1 0 1 0 0 4 3 0 2 4 3 4 2 3 1 3 4 8 9 9 11 10 10 11 11 10 9 7 8 19 23 20 24 26 26 26 25 26 25 25 24 23 23 20 18 19 19 19 19 18 18 17 15 16 18 20 20 19 18 16 15 15 16 17 18 19 18 16 16 17 16 16 16 15 14 13 12 11 11 10 10 11 11 10 9 8 7 6 6 6 7
5 3 3 1 3 4 2 1 1 1 2 4 3 1 1 2 1 3 5 6 5 7 7 9 8 7 9 10 10 10 8 9 12 10 11 22 18 18 26 25 26 25 25 27 25 25 24 22 22 20 19 20 20 20 19 19 17 16 16 18 20 20 19 18 17 16 15 15 16 16 18 19 18 17 17 17 15 15 14 14 13 12 11 10 9 9 9 10 10 9 8 7 7 6 5 5 6
6 2 4 3 4 3 3 1 2 3 5 3 2 1 1 1 1 4 8 8 6 7 9 8 6 7 9 10 8 8 8 7 12 12 10 15 16 23 27 25 26 24 24 25 23 24 24 23 23 22 20 21 21 21 20 19 17 17 17 19 19 20 19 19 18 16 16 16 15 15 16 17 17 17 17 17 16 15 14 13 13 12 11 9 8 8 8 9 9 9 8 6 6 5 4 5 5
8 6 9 8 3 2 3 2 2 2 5 1 2 1 2 2 1 4 6 6 7 8 8 7 5 6 9 8 4 4 6 7 12 14 11 13 20 27 26 25 26 24 24 23 22 23 24 24 24 23 21 21 21 20 19 18 18 18 18 18 20 21 20 19 17 16 15 14 14 13 12 14 14 15 15 14 14 13 13 12 12 12 10 9 8 7 7 7 8 8 7 6 6 5 4 4 4
11 8 11 10 2 2 3 2 1 4 3 1 3 1 2 1 2 2 3 4 10 8 6 6 6 7 7 6 5 4 4 5 10 14 15 18 23 26 26 26 25 24 23 23 22 23 26 25 24 23 21 21 20 20 19 19 18 18 18 18 20 20 18 18 17 16 15 14 14 12 11 12 12 13 13 12 12 11 12 12 12 11 10 9 8 7 6 6 6 7 7 6 6 6 5 4 3
11 6 7 6 2 4 3 2 5 5 3 1 2 2 2 1 2 2 2 1 7 7 5 6 8 9 5 2 4 4 3 4 8 14 19 23 25 25 26 25 25 25 24 22 22 24 27 25 24 22 20 21 20 19 19 19 18 17 17 18 19 18 18 17 17 16 15 14 14 12 11 11 12 12 12 12 11 10 11 11 10 10 9 8 7 7 6 6 5 6 6 5 5 6 6 5 4
13 7 2 3 3 3 2 5 7 5 3 3 3 3 3 2 2 4 3 1 3 6 7 5 5 9 4 2 4 3 2 6 11 17 24 27 26 25 25 25 25 24 24 23 22 25 27 25 24 21 20 20 19 19 19 19 18 17 17 18 18 18 18 17 16 16 15 14 14 12 11 11 11 11 12 12 11 11 10 10 9 8 8 8 7 6 6 5 5 5 5 5 4 5 5 5 6
14 7 2 3 4 1 3 6 7 6 5 5 3 4 4 4 4 2 1 2 3 8 7 1 1 6 6 5 5 3 4 9 16 20 23 26 28 27 24 24 26 25 25 23 23 27 26 25 24 22 21 20 20 19 19 19 18 17 17 17 17 18 17 16 16 15 15 14 12 11 11 11 11 11 11 11 10 10 10 9 8 7 7 7 6 5 5 5 4 4 5 4 3 4 4 5 5
7 5 3 5 4 4 5 5 6 6 6 6 4 3 5 5 3 4 7 5 4 7 6 3 3 7 9 7 5 1 3 8 17 21 22 24 28 28 26 26 26 26 26 25 27 28 25 24 23 22 21 20 20 19 19 19 18 18 17 16 17 17 16 16 15 14 14 13 12 11 10 10 10 10 10 10 10 9 8 8 7 7 6 6 5 5 5 4 4 4 4 3 3 3 3 3 3
4 3 2 5 4 6 5 5 6 6 7 7 5 3 4 7 2 4 10 8 5 4 2 3 6 8 9 6 3 1 2 7 15 20 23 23 24 25 26 25 25 25 26 27 29 27 24 24 22 22 21 20 19 19 19 18 18 18 17 16 16 17 16 15 14 13 13 12 11 11 11 10 9 9 9 9 8 7 7 6 6 5 5 5 4 4 4 3 3 4 3 2 2 2 2 2 2
4 2 1 4 5 6 5 6 7 6 8 8 6 4 4 8 4 4 8 8 7 5 2 2 4 5 6 5 2 2 3 8 15 19 22 21 20 22 23 23 23 24 25 26 28 26 24 23 21 21 20 19 19 18 18 18 18 18 17 16 16 16 15 15 13 12 12 11 11 11 11 10 9 9 8 8 7 7 6 5 4 4 4 3 3 3 2 2 3 2 2 1 1 1 2 2 1
3 4 2 4 5 5 6 6 6 6 7 8 6 4 4 6 6 6 7 8 7 5 3 4 6 3 4 4 3 3 2 10 17 19 20 19 20 21 22 23 22 23 24 26 26 25 25 22 21 20 19 19 19 19 18 18 18 18 17 16 16 15 14 14 13 12 11 11 11 10 11 10 9 8 7 7 6 6 4 3 3 2 3 2 1 1 0 1 1 1 1 1 0 1 1 2 2
3 5 4 4 4 5 6 5 6 6 6 7 5 4 5 4 7 8 8 9 5 4 5 3 6 5 5 4 4 3 5 15 19 19 21 18 18 20 22 22 22 23 24 26 26 25 25 22 21 20 20 19 19 19 18 17 18 17 16 16 15 14 13 12 12 12 11 11 11 9 9 9 8 7 6 5 4 4 3 2 1 1 2 1 0 0 1 1 1 3 2 1 1 0 1 1 2
4 4 4 3 4 5 6 5 7 5 5 8 4 3 5 4 7 9 9 10 5 3 5 2 5 4 5 7 5 6 9 19 20 19 22 18 18 18 19 20 20 21 23 24 25 26 25 23 22 21 20 20 19 19 18 17 17 17 16 15 14 13 12 12 11 11 10 9 9 8 7 7 7 6 5 4 3 2 1 1 1 2 1 1 2 2 2 2 3 4 2 1 1 1 1 1 2
4 4 4 3 4 5 7 7 6 4 6 7 3 2 4 5 6 8 10 12 5 2 2 3 4 3 6 6 8 13 14 21 21 20 24 19 18 16 18 20 19 20 22 23 23 25 25 24 23 22 21 20 19 18 18 18 17 17 16 15 14 13 12 11 11 10 9 8 7 7 6 6 6 5 4 4 3 2 2 3 3 4 3 3 4 4 3 3 4 4 3 1 1 2 2 2 3
4 4 4 4 5 6 7 8 7 5 6 7 5 4 4 7 5 9 14 14 11 4 2 3 2 3 5 6 13 19 18 22 24 23 24 21 18 14 15 16 17 20 22 22 22 24 22 22 22 22 22 20 19 18 18 18 18 17 16 15 14 13 12 11 11 9 9 8 6 6 6 6 6 5 5 4 5 4 5 5 5 6 5 4 5 5 4 4 5 5 4 2 1 2 3 4 4
3 3 3 4 5 6 7 8 7 6 6 6 5 5 6 6 3 10 15 10 11 8 4 5 6 5 7 10 16 19 18 22 24 23 22 20 18 14 12 11 14 17 19 22 23 22 20 20 21 21 21 20 19 18 17 18 18 18 16 16 15 14 13 12 11 9 9 7 6 6 6 6 6 6 6 6 7 6 6 7 6 6 6 6 6 5 4 3 4 5 4 2 1 3 4 5 4
2 3 3 5 4 5 6 6 7 6 5 4 4 4 5 4 1 6 11 10 10 7 5 5 7 7 9 12 15 17 18 20 21 21 21 21 19 18 15 13 14 14 16 21 22 20 19 18 19 19 19 19 19 18 18 18 18 18 17 17 16 15 14 13 11 10 9 8 8 7 7 7 7 8 6 7 7 6 7 8 7 7 6 6 6 5 4 2 3 4 3 1 2 3 4 5 5
2 3 3 6 3 5 8 6 7 6 5 4 4 3 2 3 3 3 7 12 12 8 6 5 8 10 11 13 15 17 18 19 19 18 19 20 19 19 18 15 15 15 16 19 20 19 19 18 18 18 18 19 19 17 18 18 20 19 18 18 17 16 16 14 12 11 11 10 10 9 8 8 9 10 8 7 8 8 9 9 8 8 7 6 5 4 4 3 5 5 4 3 4 4 5 6 7
2 3 4 4 3 4 8 6 7 6 4 4 3 2 3 5 3 4 4 5 8 10 10 8 12 14 14 14 15 18 17 18 18 18 19 20 19 16 15 17 17 17 17 18 18 19 19 18 20 19 18 21 20 19 19 18 21 21 18 18 17 17 17 15 14 13 12 11 11 10 9 9 10 11 10 8 9 8 8 10 9 9 9 6 5 4 5 6 6 6 5 4 4 4 5 7 7
3 3 5 5 4 4 6 7 6 5 2 2 3 4 5 5 4 5 3 1 3 9 11 10 11 14 15 15 14 16 16 16 17 17 18 19 20 16 13 17 18 17 18 18 18 20 20 19 22 21 18 23 23 21 21 19 21 20 17 18 17 17 17 15 15 14 13 12 11 11 10 11 11 12 11 11 10 9 9 11 11 11 10 7 6 7 6 7 7 7 6 5 4 3 4 6 7
2 2 5 8 8 4 8 7 4 4 3 4 5 6 6 8 7 5 2 1 2 13 15 13 11 13 14 15 14 15 15 15 16 16 17 18 21 20 18 18 17 17 19 18 19 20 20 20 23 21 19 23 24 22 21 21 22 19 16 18 18 16 16 15 14 14 14 13 13 13 12 12 11 11 12 12 12 10 10 12 10 9 9 7 7 8 6 5 5 6 7 5 2 2 4 7 7
3 4 2 8 8 8 11 7 5 4 4 4 6 7 6 8 3 5 4 3 0 15 21 17 12 12 12 13 13 13 14 15 16 17 17 17 20 21 22 22 19 20 20 18 18 20 21 21 23 22 20 22 23 23 21 20 22 19 17 19 20 19 17 17 16 16 16 15 16 14 13 13 12 11 11 12 12 10 11 11 9 7 8 8 7 9 7 4 3 4 6 4 3 4 6 6 7
2 4 1 7 7 10 11 5 4 3 3 3 5 5 2 5 1 4 3 4 1 12 21 18 11 11 11 11 12 12 13 14 14 15 16 16 20 23 21 22 22 22 22 20 20 21 20 22 27 26 24 23 21 24 23 20 22 21 19 20 20 20 20 20 18 16 16 17 18 15 15 14 12 12 12 12 12 11 11 10 8 8 8 7 5 7 7 4 3 3 6 3 3 5 5 5 7
5 6 5 7 7 9 10 3 5 2 1 1 3 6 1 3 2 3 3 4 1 7 18 20 12 9 9 8 10 12 12 13 13 14 16 15 19 25 21 21 23 22 22 23 23 23 21 24 29 27 24 24 21 23 26 22 22 21 20 20 19 20 21 21 18 16 16 18 19 17 17 15 13 12 9 11 12 10 10 9 8 8 7 6 5 5 5 5 3 3 5 2 1 4 4 5 7
4 9 8 8 11 7 8 4 5 2 1 2 2 5 3 2 2 1 2 3 1 4 12 19 14 10 11 10 10 12 11 13 13 12 13 13 15 20 21 21 23 23 23 24 25 25 25 26 29 26 24 26 22 23 27 25 23 22 20 19 18 18 18 19 19 18 18 18 18 18 16 14 14 13 8 9 12 11 9 8 7 8 7 6 5 5 5 4 4 3 3 4 3 5 5 6 7
4 8 8 9 10 6 6 4 3 1 2 3 2 5 6 4 3 1 2 2 2 0 6 12 13 11 11 10 10 10 11 12 11 10 11 12 13 15 20 22 22 23 23 23 24 26 27 26 28 27 25 27 25 24 27 24 23 22 21 19 17 17 17 18 19 19 19 18 16 16 16 16 15 14 11 11 12 11 9 8 8 8 7 5 5 5 4 3 5 8 3 4 5 5 7 7 7
8 9 8 6 9 3 5 2 2 3 1 4 2 2 5 5 3 2 3 3 1 1 5 5 7 10 9 8 9 9 9 12 11 9 12 14 14 14 16 17 20 23 23 23 24 28 30 27 27 28 26 27 26 26 25 23 21 22 23 22 20 20 20 21 21 20 18 17 15 15 18 18 15 14 13 12 11 9 7 8 9 8 7 6 6 5 3 2 3 6 5 7 8 8 9 8 4
11 7 4 5 6 3 6 3 2 0 0 4 2 0 3 6 5 2 2 5 2 0 4 3 3 6 8 7 7 10 10 11 12 14 16 17 16 16 15 16 20 25 24 24 25 28 33 31 28 28 27 27 27 27 26 24 23 23 26 25 22 23 23 24 24 23 21 20 17 15 16 18 15 14 14 12 11 9 8 9 9 8 7 7 6 4 3 3 3 4 5 7 8 10 11 10 8
9 7 3 3 5 3 6 6 4 3 2 4 2 3 1 7 7 3 3 4 2 2 1 2 2 1 6 4 1 5 9 9 12 15 14 14 15 15 17 20 20 22 21 21 21 22 28 33 32 30 30 28 27 27 26 25 23 22 24 24 23 23 23 23 24 24 25 24 19 16 15 16 15 14 13 11 10 10 9 9 9 8 7 7 7 5 4 4 4 6 5 4 4 8 9 10 7
8 5 4 4 4 3 7 8 6 4 5 2 3 3 2 6 9 4 3 4 2 4 4 3 3 0 3 5 4 6 7 7 10 11 10 11 11 12 15 17 16 17 18 20 20 19 22 28 30 31 32 29 26 28 25 23 23 21 21 22 21 20 21 21 21 22 23 22 20 18 16 15 14 13 13 12 10 10 11 11 11 9 7 7 7 6 5 5 5 6 4 3 5 4 5 7 5
4 3 2 5 6 5 5 5 6 5 6 3 6 3 2 6 10 6 4 7 8 7 7 8 4 1 2 3 4 6 6 6 8 10 12 13 11 11 12 10 11 13 12 14 17 17 17 21 22 25 28 25 24 25 23 21 21 21 20 20 19 18 20 20 19 20 21 20 19 19 18 16 16 15 14 13 11 10 11 11 10 10 8 7 7 7 6 5 5 5 3 3 4 6 8 6 2
3 4 5 5 5 2 2 3 6 7 8 9 9 4 6 9 11 9 7 8 9 3 8 9 6 3 2 2 1 4 6 7 6 5 10 12 11 9 9 6 6 8 7 9 11 10 12 17 18 19 21 21 22 22 21 21 20 20 19 18 19 19 19 19 18 19 19 20 19 20 21 19 17 16 14 14 13 12 12 11 9 9 9 9 8 7 6 4 5 4 5 4 3 5 7 9 7
3 3 4 4 3 2 3 4 7 9 7 9 11 4 7 10 10 11 9 6 7 6 3 8 8 6 1 1 2 0 3 5 8 9 13 9 4 3 4 4 5 5 5 6 7 8 10 15 15 16 19 19 20 21 21 21 19 18 19 17 18 18 17 18 19 19 19 19 19 20 21 19 16 15 15 14 14 13 12 10 9 8 9 9 8 7 6 5 5 4 6 5 4 6 6 8 8
7 5 4 3 5 6 4 4 6 3 5 5 9 6 8 12 13 12 12 8 3 3 4 6 10 9 5 2 1 2 5 2 4 7 4 7 7 2 1 2 4 4 4 3 7 10 9 16 13 12 18 18 18 20 19 18 18 18 18 17 16 16 16 17 18 18 19 19 17 17 19 17 15 16 15 15 15 13 11 10 10 9 8 8 7 7 7 5 5 4 5 4 4 6 7 7 7
7 3 5 8 7 4 3 5 10 7 7 3 5 6 11 14 13 12 12 10 3 2 5 6 9 12 11 6 0 2 6 4 7 8 16 15 4 5 2 2 3 4 4 3 3 7 6 14 13 10 15 17 17 18 17 17 18 17 17 17 17 18 18 18 17 17 17 16 15 16 18 16 15 16 16 15 15 14 12 11 11 11 10 9 9 8 6 4 3 4 5 5 5 6 6 6 6
7 5 7 7 6 2 5 3 10 8 5 2 8 9 13 14 12 11 11 10 7 2 3 8 5 8 11 12 5 4 3 3 5 11 17 6 8 6 2 2 3 3 3 3 2 2 5 9 12 11 13 16 16 16 17 17 17 17 16 16 17 18 19 18 18 17 16 15 14 15 17 16 16 17 16 16 15 14 14 12 11 11 11 10 10 9 6 4 5 5 6 6 6 6 6 6 6
8 7 6 4 4 3 1 1 5 8 4 2 10 11 12 12 12 11 10 10 11 8 5 4 1 0 5 12 9 2 4 2 3 10 11 5 7 3 2 1 3 4 5 5 4 4 6 7 10 12 14 16 16 15 16 16 16 17 16 16 15 15 16 18 17 17 16 16 16 15 15 15 17 17 16 16 14 14 14 13 11 11 12 11 10 9 8 7 7 7 6 7 6 5 6 5 5
7 6 6 4 3 6 1 2 1 5 5 4 10 10 8 9 11 10 12 15 12 12 10 4 1 2 3 9 9 5 4 6 6 7 8 7 5 2 2 2 3 7 8 9 8 9 11 10 11 14 14 15 16 15 16 14 15 16 15 14 14 13 14 15 16 16 17 17 17 17 16 16 17 16 16 16 14 14 15 14 12 12 13 13 11 11 10 9 9 8 8 7 5 4 7 6 5
9 8 8 6 7 8 2 2 6 7 3 7 6 6 7 8 10 10 11 13 10 11 12 9 6 1 3 5 7 8 5 3 8 6 6 6 6 4 3 4 6 10 11 12 13 13 13 13 14 16 16 15 16 16 15 15 15 15 15 13 12 13 14 15 15 16 16 16 16 17 17 17 18 17 16 16 15 15 15 15 14 13 13 13 13 13 12 11 10 10 9 6 5 5 7 6 5
7 7 9 4 7 8 6 7 6 5 3 9 5 3 5 8 10 9 7 8 9 12 16 14 6 1 1 3 5 8 9 5 3 8 8 7 9 9 6 8 9 9 10 12 16 15 12 12 15 18 17 15 15 16 16 17 17 15 16 14 12 14 14 15 16 16 16 16 15 16 17 17 18 17 16 16 16 16 16 17 16 14 13 13 14 13 12 12 10 9 8 7 7 7 5 3 5
2 1 5 4 5 5 8 9 7 5 2 6 5 3 5 7 7 9 8 10 12 14 17 13 6 2 3 3 3 7 10 10 5 3 6 7 10 12 12 15 14 12 13 15 16 16 13 13 14 17 18 17 17 18 18 18 17 16 17 15 13 14 14 14 15 15 15 16 16 16 16 17 18 17 17 17 17 17 17 17 17 17 15 14 14 14 13 12 10 9 9 8 7 4 2 2 4
4 6 8 9 5 8 9 7 7 6 2 3 3 3 6 4 4 7 8 11 13 15 15 12 8 6 4 3 3 4 8 10 8 6 4 3 6 10 14 17 17 14 14 15 16 17 18 16 14 17 20 20 20 19 18 19 19 18 18 16 15 15 14 14 15 15 14 14 15 16 15 16 18 18 18 18 18 17 17 17 17 18 17 15 14 14 14 12 11 10 9 8 7 4 2 4 6
5 10 10 9 8 9 7 6 7 7 5 1 3 3 4 3 4 7 8 9 13 14 13 11 9 9 7 5 5 3 5 9 9 6 6 6 5 9 11 12 13 13 13 15 17 17 19 19 17 18 20 21 21 20 18 19 20 18 18 18 16 15 15 13 14 15 14 12 14 16 16 17 19 20 18 18 18 17 17 17 17 18 17 17 15 14 14 13 12 12 10 8 7 7 7 7 8
7 11 9 9 8 8 8 8 5 4 5 2 1 3 2 4 3 4 6 8 10 10 9 9 9 11 12 5 5 5 2 3 7 6 5 8 10 10 8 6 8 10 11 14 15 14 17 21 20 19 20 20 21 20 19 19 20 19 18 18 17 15 14 13 13 15 15 14 14 15 16 16 16 19 18 18 18 18 18 18 17 17 17 17 16 15 15 14 14 13 11 9 8 9 9 9 9
10 10 9 9 8 8 9 6 3 6 5 3 5 4 4 6 2 4 6 6 7 7 7 8 10 13 13 8 1 5 4 2 5 6 6 7 9 11 8 4 6 8 6 7 10 11 13 17 18 19 19 20 20 19 19 21 21 21 19 19 20 18 14 14 15 16 16 15 14 14 15 16 14 15 17 17 18 18 18 18 18 18 17 17 17 16 16 15 14 13 11 11 11 12 11 10 9
7 7 8 8 5 4 5 3 3 5 4 6 6 5 11 6 2 5 6 6 8 8 7 8 10 12 12 9 5 1 4 4 5 5 7 8 8 10 10 6 7 10 8 6 8 10 12 13 13 16 18 19 19 19 20 22 24 23 22 22 23 21 18 16 14 15 16 14 13 13 15 16 15 14 14 16 18 18 19 19 19 18 18 17 18 17 17 15 14 12 11 12 12 13 13 11 10
7 6 6 6 3 4 4 3 4 4 5 8 3 10 11 5 5 6 6 8 10 9 8 8 9 11 10 8 6 4 3 4 6 6 5 7 7 10 11 9 9 10 9 7 8 8 10 11 10 13 19 20 19 20 21 24 26 25 24 25 25 22 20 17 12 13 18 17 13 13 15 16 16 16 15 15 17 17 18 20 20 19 19 19 18 17 17 16 15 12 10 10 10 11 12 11 10
4 3 5 5 4 5 4 3 4 4 6 6 5 12 6 4 6 6 8 10 9 9 9 9 10 10 10 8 6 6 7 6 5 8 7 7 7 9 10 11 12 11 10 9 8 8 9 12 13 15 19 19 19 21 21 24 26 25 26 28 27 23 21 19 14 13 17 19 17 15 14 15 16 17 17 16 17 18 18 19 19 19 19 19 18 18 17 15 14 12 10 9 9 7 8 9 8
5 5 4 4 4 4 4 4 4 4 6 3 9 8 3 5 5 5 9 9 8 10 9 9 10 9 9 9 7 7 7 7 6 3 6 9 12 13 10 7 8 11 12 12 9 7 8 11 12 14 17 16 17 21 22 23 24 25 28 29 28 24 23 23 21 18 17 18 20 18 16 15 15 17 19 18 18 19 18 18 19 20 20 19 18 18 17 14 13 13 12 11 9 7 7 8 8
4 5 4 3 5 4 5 6 7 7 5 2 7 5 4 6 8 7 7 7 9 10 8 9 10 9 9 8 7 8 8 7 7 4 4 5 6 10 12 9 7 8 11 13 12 9 6 4 4 8 15 17 18 23 25 26 25 26 28 28 26 24 25 27 26 22 20 19 21 22 21 19 17 15 18 19 19 19 20 20 20 20 20 21 19 17 16 15 14 13 13 13 11 9 8 8 8
3 5 4 5 6 6 6 6 6 6 4 2 4 5 6 6 7 6 5 5 8 8 8 9 10 10 9 7 8 9 9 9 8 6 4 3 4 4 5 12 12 12 14 15 16 13 10 7 5 8 13 16 19 22 25 25 24 25 26 26 25 22 23 27 27 24 24 22 21 22 23 23 21 16 17 19 19 20 20 20 19 19 20 22 21 18 18 17 15 14 14 14 13 11 10 9 9
4 4 7 7 7 6 3 5 4 5 4 2 6 7 6 4 3 5 4 5 7 8 9 8 9 9 8 8 8 9 10 9 10 10 9 11 10 9 7 1 5 11 14 12 12 12 12 11 9 12 16 17 19 22 24 24 23 24 23 23 24 22 20 25 29 27 26 25 24 24 23 24 24 20 18 20 20 20 21 22 21 20 21 21 21 19 18 18 17 15 15 15 14 13 12 11 10
4 7 9 6 4 2 2 5 5 5 5 0 7 7 5 3 3 3 4 6 7 8 7 6 8 9 7 7 8 8 9 8 8 9 7 8 12 13 11 8 6 5 5 5 6 6 6 9 7 10 16 15 16 21 22 23 23 24 23 21 22 22 20 22 27 29 27 27 28 27 24 23 23 21 19 22 21 19 20 22 22 21 19 19 21 21 19 19 19 17 16 15 14 15 15 14 12
7 9 10 7 4 4 5 5 4 5 7 3 4 4 4 4 4 4 5 6 5 6 5 4 7 7 5 7 8 9 10 9 8 8 8 8 11 14 15 13 10 8 7 6 6 6 5 9 9 4 10 11 12 16 17 19 21 22 21 20 21 22 21 20 24 30 30 28 29 29 26 25 24 22 20 22 22 21 20 19 20 20 19 18 19 20 19 20 21 20 17 15 14 14 16 16 14
7 7 8 7 5 5 6 5 5 5 5 4 0 2 3 2 3 4 4 4 3 3 3 2 3 4 5 6 6 7 8 10 10 9 9 10 14 16 16 15 12 9 8 8 8 7 7 9 10 6 8 9 9 11 13 15 17 18 18 19 20 22 23 21 21 27 30 28 28 28 26 25 24 23 23 23 22 22 22 19 19 20 20 20 20 20 19 20 21 22 20 17 15 14 15 15 14
7 7 6 7 6 6 6 5 6 7 6 7 5 1 3 1 1 1 3 3 2 3 4 4 3 4 5 4 4 4 5 8 10 11 10 10 13 17 18 18 16 11 9 8 7 7 6 6 6 6 7 8 7 8 11 13 14 17 18 19 21 22 24 24 22 25 30 30 29 28 26 25 25 24 25 23 21 22 23 22 21 21 20 21 21 21 21 19 20 23 22 19 16 15 15 15 15
Wind_Direction
128 124 151 180 181 235 200 260 268 126 282 56 58 349 4 338 334 10 48 24 139 62 68 103 57 50 81 78 86 76 62 55 30 77 76 118 140 143 139 135 137 135 134 137 140 143 143 143 143 143 139 138 137 134 131 127 127 125 122 121 122 123 123 123 124 122 120 120 117 113 110 110 107 104 101 99 98 97 97 97 96 95 94 92 90 90 92 94 94 94 97 99 95 89 87 84 84
163 161 172 171 73 339 278 91 27 188 38 52 56 8 352 319 353 38 356 290 255 98 87 87 70 66 77 73 80 71 57 59 71 74 94 127 135 137 139 139 138 136 138 141 141 143 146 146 144 144 142 140 138 136 134 132 132 127 123 119 116 113 114 116 117 115 115 116 114 112 110 108 106 106 105 103 102 102 102 103 104 100 99 98 96 95 97 98 97 97 99 106 107 102 102 95 92
180 153 142 61 33 14 310 235 356 326 57 63 55 45 31 307 84 104 241 228 183 142 103 84 74 53 61 67 63 66 65 65 89 92 115 132 134 140 143 139 136 135 138 141 141 144 148 147 144 143 143 141 138 137 136 136 132 126 123 118 115 113 113 114 113 113 116 117 115 115 113 112 112 112 111 111 111 110 110 109 108 106 103 100 98 98 99 101 99 100 104 112 116 115 113 103 101
201 188 151 75 23 1 294 273 304 335 48 74 83 43 139 216 146 165 213 203 159 120 94 79 62 37 58 77 69 73 80 78 101 112 128 137 141 144 142 137 137 134 136 140 139 145 150 148 143 142 143 141 139 138 138 136 130 125 124 121 119 115 114 114 114 116 117 116 114 114 114 115 115 113 112 114 117 117 116 115 112 109 108 105 100 99 99 99 99 100 102 110 118 117 110 105 108
211 210 169 126 62 296 292 311 279 9 47 59 116 161 180 153 214 174 196 172 107 79 84 85 81 65 62 61 54 76 83 96 115 120 125 135 139 141 141 138 137 135 138 140 138 146 152 148 143 142 143 141 140 140 138 135 131 128 126 124 120 117 118 118 117 120 121 119 115 115 115 115 114 112 111 114 117 118 119 118 115 113 114 112 104 100 96 92 93 95 97 103 110 110 101 95 96
219 217 181 167 157 220 267 303 20 64 69 334 101 178 185 144 253 180 189 127 84 80 90 91 107 97 78 54 44 67 78 97 119 125 129 137 140 140 142 140 138 136 138 140 140 148 151 148 144 143 143 141 140 140 138 137 135 132 130 126 122 121 125 126 126 128 129 126 121 119 120 119 117 115 115 118 119 120 122 119 117 117 118 115 108 100 94 91 89 88 93 98 105 113 114 108 99
228 225 182 201 228 190 247 11 58 63 99 61 102 179 212 206 305 350 286 94 77 81 58 62 116 101 86 99 60 52 74 116 127 129 136 141 143 141 140 140 137 136 137 139 140 148 151 147 144 143 143 142 141 140 140 140 138 135 133 129 128 130 131 133 134 134 133 129 124 123 126 126 123 121 120 120 120 120 119 118 118 119 117 113 108 102 95 94 89 85 90 94 99 108 116 124 123
227 232 187 237 268 206 268 37 59 50 98 118 140 182 208 170 58 1 327 22 72 75 46 21 113 99 93 124 80 2 24 129 128 130 139 145 145 140 137 137 136 137 140 138 140 149 151 148 146 145 145 143 143 143 142 142 139 134 133 132 133 135 137 138 139 138 135 130 127 127 132 131 125 123 121 120 122 123 121 119 118 118 117 113 107 104 98 94 91 87 91 96 93 95 106 116 118
220 223 229 249 268 242 27 37 62 63 86 106 138 182 171 117 120 163 73 52 97 90 82 279 203 103 115 99 91 332 5 99 118 132 143 147 145 139 137 138 136 139 141 140 146 150 151 151 148 147 148 147 146 145 145 143 139 135 135 137 138 139 141 143 143 140 135 132 130 130 132 131 126 125 123 125 127 126 124 123 123 122 118 113 108 106 100 99 101 96 97 98 89 87 94 99 108
225 215 253 277 300 33 44 40 65 72 66 74 99 158 144 121 166 151 87 59 66 90 102 139 97 106 118 101 101 44 15 103 125 139 147 149 146 138 138 139 140 142 142 144 151 151 151 153 151 150 150 149 149 148 147 144 141 141 141 144 145 144 145 145 142 136 132 132 132 131 129 128 129 127 125 126 127 128 129 129 129 126 118 112 107 106 102 104 111 109 108 104 96 90 91 96 104
268 208 242 296 356 38 36 42 52 64 61 59 84 116 133 119 126 96 95 89 76 82 61 70 91 102 111 102 97 276 257 147 141 145 149 150 143 137 139 140 142 145 144 146 151 152 152 154 153 154 153 151 152 150 149 146 145 147 148 150 150 148 146 143 138 133 131 131 134 132 127 129 130 128 127 128 132 133 133 134 132 127 120 113 105 104 106 110 121 124 122 122 119 108 114 116 122
290 4 186 298 13 37 17 36 38 47 60 49 57 62 98 105 101 92 101 109 108 109 27 41 127 116 106 107 133 236 237 150 149 148 147 144 135 133 136 139 141 144 146 148 152 154 154 155 156 155 155 153 152 152 151 151 152 152 153 154 153 150 146 142 140 137 136 135 135 131 127 128 130 134 136 138 141 139 138 142 141 134 125 115 106 105 108 128 136 133 126 142 137 118 146 147 144
322 344 314 315 9 28 11 33 40 29 47 50 52 47 63 91 112 111 101 111 118 128 102 96 142 141 97 113 137 188 219 144 150 148 140 135 133 135 134 137 141 142 146 149 152 154 155 156 158 158 156 155 155 156 155 156 157 157 156 155 155 152 148 145 144 143 144 143 135 128 128 127 128 133 138 140 141 142 147 151 148 140 135 124 106 98 83 197 165 353 337 328 43 104 141 139 138
312 322 317 338 1 23 13 17 43 27 31 50 54 61 63 79 109 112 111 112 98 118 120 113 147 122 103 143 137 179 183 144 151 148 135 128 129 133 132 137 142 143 146 150 152 154 157 158 159 160 158 158 158 158 159 161 160 160 160 158 158 157 154 150 150 151 149 145 134 128 133 132 131 134 140 143 144 148 149 157 178 164 158 182 342 335 311 247 302 331 325 298 308 74 158 165 171
270 312 299 332 355 23 14 9 44 34 35 46 39 68 75 80 107 112 114 108 77 114 124 191 193 135 149 183 159 186 175 146 155 147 132 126 122 126 131 136 140 144 146 149 153 154 157 159 159 160 160 161 161 161 162 163 163 163 163 162 162 161 160 158 159 159 152 148 139 138 144 137 136 142 154 157 164 170 175 206 257 287 223 244 283 301 304 280 298 316 318 286 297 305 264 250 222
271 304 287 324 5 27 6 3 28 26 47 53 54 60 67 86 107 107 111 117 116 221 143 162 213 166 162 182 155 172 167 145 152 139 127 126 123 128 133 136 137 143 148 148 152 155 158 158 160 162 162 164 164 164 165 165 167 167 167 167 167 166 168 169 167 162 158 157 149 150 151 147 150 155 177 186 199 214 235 252 277 293 266 256 285 296 298 298 306 314 327 321 308 306 289 294 284
284 286 294 344 19 38 10 5 13 5 37 45 55 26 29 83 115 112 108 121 130 168 194 110 77 83 133 146 147 164 161 147 153 142 131 130 129 131 130 136 135 140 149 151 154 157 159 159 161 164 164 167 165 165 167 167 169 170 172 171 172 173 176 180 175 167 167 165 162 163 161 170 178 178 194 207 222 234 248 265 287 298 281 265 283 292 295 309 316 322 329 328 318 300 299 304 281
289 302 318 23 21 44 21 7 12 355 20 33 51 20 18 64 119 123 111 121 126 136 158 103 68 76 118 130 142 158 157 153 157 148 141 140 142 145 139 147 140 139 151 154 158 160 161 162 163 166 167 168 166 168 169 169 173 173 176 176 176 180 183 188 183 176 173 174 184 184 176 187 202 205 210 215 225 239 252 268 293 304 290 271 273 283 298 322 326 329 330 325 311 296 303 306 281
315 297 317 51 27 69 55 4 12 357 360 27 74 36 18 56 9 114 117 129 122 125 158 127 103 112 130 136 145 155 155 160 161 153 153 153 155 160 155 158 151 149 159 157 160 164 165 164 165 167 169 170 166 170 172 170 175 176 178 179 181 185 188 193 188 184 182 189 206 202 195 199 211 225 229 222 225 243 259 272 291 297 295 279 261 265 284 314 316 320 336 328 313 318 315 307 293
315 287 330 49 20 80 75 21 11 358 343 2 64 60 17 62 13 58 116 139 138 150 169 159 146 144 149 150 154 158 161 167 165 160 163 159 156 163 160 159 159 160 167 165 164 167 170 167 168 169 169 171 167 172 176 174 178 179 180 180 183 189 193 196 193 193 193 197 213 213 211 210 215 228 237 231 229 246 263 271 279 279 282 267 241 250 265 288 305 306 323 315 312 327 312 302 299
273 303 347 35 1 60 71 47 15 353 344 352 25 46 43 58 21 37 79 131 138 156 173 185 164 155 159 160 161 163 169 172 172 172 170 161 152 159 163 161 163 167 169 171 172 173 174 171 170 171 172 174 171 173 174 178 182 180 182 183 185 193 195 198 197 202 205 204 213 219 221 222 223 229 237 237 235 250 258 256 263 268 270 260 242 240 244 273 293 298 308 300 306 322 301 297 302
261 312 356 349 341 65 74 60 29 340 319 337 16 22 30 44 11 27 49 21 83 140 174 208 179 160 160 160 164 165 170 175 176 178 172 162 154 155 163 165 166 167 169 174 178 178 177 175 174 173 176 178 176 175 171 177 185 181 184 188 189 195 197 200 201 207 215 214 217 222 227 230 227 230 241 242 238 243 245 249 257 260 258 252 241 234 238 262 276 298 307 291 303 335 309 297 302
276 25 11 326 320 73 83 65 41 328 330 353 29 28 28 45 13 346 9 258 113 123 154 204 191 164 160 158 166 168 172 178 178 182 177 165 161 160 161 171 177 168 172 179 178 179 179 176 177 175 176 180 181 181 174 176 184 184 188 192 192 195 197 202 206 210 217 219 219 220 227 234 230 230 241 242 236 233 244 258 263 256 250 243 232 227 238 256 261 308 318 301 312 334 308 300 300
288 52 39 301 312 65 69 52 36 355 9 14 38 38 29 64 29 307 358 308 354 112 143 187 184 159 165 162 166 173 175 182 183 181 180 171 164 165 162 167 178 172 173 183 179 179 180 178 180 180 178 179 183 186 183 180 184 188 194 193 192 194 196 203 207 211 215 218 220 218 223 238 241 233 233 235 230 229 244 254 257 254 246 245 229 216 230 242 236 320 328 314 299 282 290 299 301
349 22 286 293 312 67 58 41 63 12 38 43 70 82 38 92 127 291 347 291 316 109 137 158 162 158 170 169 167 177 180 183 185 178 181 178 162 163 167 165 168 174 175 179 186 184 178 182 187 186 186 183 183 190 190 187 187 191 200 198 194 195 199 206 208 213 219 219 219 217 221 232 241 238 237 239 234 234 240 237 241 247 239 237 215 208 222 211 193 311 309 276 256 275 285 289 292
37 303 311 324 298 78 56 18 98 49 79 119 136 133 117 85 87 297 281 286 351 116 131 134 149 165 168 182 175 176 184 182 184 183 181 184 170 162 168 169 165 174 177 172 185 193 182 183 191 189 189 185 181 191 192 190 192 195 204 202 199 200 204 209 207 212 221 219 215 217 223 222 229 244 249 245 243 239 235 232 238 238 229 221 210 208 202 199 209 311 308 256 235 294 287 282 290
34 290 311 298 271 94 63 341 82 58 190 167 200 142 138 170 154 261 252 278 293 131 127 129 144 169 175 186 180 171 184 187 184 189 182 190 191 167 163 174 172 173 176 171 177 189 188 186 191 189 191 190 182 190 194 193 194 198 206 205 200 201 206 210 209 215 220 219 216 218 222 218 225 244 245 237 249 249 236 236 239 232 223 209 213 214 189 198 192 179 307 308 289 286 265 274 288
345 286 290 285 297 67 81 318 60 32 219 155 229 145 147 201 197 213 203 212 260 166 116 127 145 168 176 174 174 170 177 183 182 190 186 197 204 177 171 178 174 171 174 175 170 176 188 192 191 186 190 191 184 191 197 197 194 196 205 207 203 200 202 207 211 218 221 223 223 217 217 219 224 237 244 245 251 248 234 233 230 227 226 203 209 218 189 162 164 172 221 265 238 243 245 253 274
277 271 282 310 324 46 127 263 27 2 324 135 183 147 161 216 212 236 209 151 287 5 100 126 158 153 154 174 174 167 174 179 180 193 195 205 206 185 185 180 167 169 176 179 171 169 178 186 189 186 187 187 184 189 197 200 198 199 207 209 207 202 203 207 211 216 218 222 226 220 216 217 221 229 242 249 248 241 229 231 225 213 215 208 211 223 207 176 179 188 208 220 212 221 235 220 226
260 258 290 326 288 203 146 175 166 256 320 119 143 312 171 192 177 172 152 127 129 247 119 147 201 141 149 185 171 156 172 181 185 194 197 207 205 183 187 197 175 168 177 182 176 172 173 178 185 183 183 186 187 188 191 195 195 197 202 206 210 207 207 211 213 216 217 218 221 220 213 213 222 226 231 240 240 239 232 230 228 210 205 213 218 225 241 243 234 239 231 225 212 214 230 211 192
251 231 204 277 271 197 164 176 172 191 140 129 224 334 88 154 150 138 109 112 158 254 90 158 251 120 131 126 109 169 168 185 196 197 202 208 206 185 186 205 187 164 171 178 176 174 170 173 178 179 182 184 186 186 183 186 188 193 199 203 211 211 210 213 216 217 217 216 219 221 217 218 227 225 225 233 232 233 232 221 223 219 205 213 222 222 237 245 252 258 250 263 250 226 241 233 211
251 252 208 226 254 175 178 180 180 183 115 131 269 334 10 122 127 149 126 97 56 9 350 279 247 25 103 117 178 204 168 190 199 191 211 216 208 199 195 203 188 169 174 173 174 179 169 167 172 175 179 178 177 179 178 182 188 192 199 204 209 211 211 214 214 212 212 215 218 219 220 222 223 220 219 226 223 224 230 218 212 216 209 209 217 223 234 241 259 265 252 285 301 292 289 251 236
238 287 283 238 237 195 177 161 153 154 123 168 243 235 22 93 124 136 98 80 59 22 313 273 255 199 183 151 165 174 166 198 193 183 210 215 209 206 207 210 191 183 182 171 173 179 170 166 170 170 173 172 169 175 175 179 189 192 195 200 202 204 206 209 207 205 207 210 212 214 218 215 211 211 213 216 215 217 229 224 209 205 208 214 218 230 239 241 262 285 280 280 298 316 329 314 324
207 234 264 270 266 213 151 110 141 177 174 183 217 218 76 103 127 111 82 74 83 72 284 281 281 253 166 127 155 154 175 191 165 195 231 218 207 203 206 218 200 186 187 183 171 166 165 163 168 169 171 172 170 175 178 178 186 191 194 197 197 198 200 203 201 204 208 205 210 217 214 207 202 207 210 210 210 212 225 226 214 202 205 217 223 233 241 245 259 290 300 290 308 315 324 329 337
302 282 291 304 311 259 166 147 161 185 202 186 194 185 92 107 105 104 115 100 113 149 278 305 295 289 355 141 219 121 218 192 144 196 230 222 200 207 210 210 197 172 176 188 128 124 170 167 159 161 168 173 171 176 179 179 185 190 194 194 197 201 200 201 201 205 209 205 210 212 201 195 196 204 205 206 207 210 223 225 217 207 204 213 220 229 237 249 253 263 288 295 323 322 310 316 327
322 349 335 282 281 274 191 132 99 97 275 215 173 146 103 98 87 101 120 106 113 134 71 350 323 312 299 253 149 357 271 265 100 175 172 51 35 3 270 179 182 154 151 184 94 93 166 174 155 148 166 170 167 172 176 181 186 189 196 194 193 202 203 204 204 205 208 207 208 200 191 192 195 200 202 204 203 204 218 222 214 210 208 213 218 229 236 247 250 253 279 291 311 313 307 313 328
307 308 267 255 269 293 134 118 88 71 300 301 89 76 81 86 88 101 109 107 94 26 83 67 356 323 302 295 252 251 261 318 16 50 65 65 113 191 182 151 182 166 146 194 104 83 134 171 165 150 163 164 161 172 177 184 190 190 198 197 192 198 200 202 205 207 208 207 207 199 193 194 195 197 198 200 202 200 208 218 217 213 212 217 222 230 238 241 251 270 280 281 284 289 299 313 329
286 263 267 282 292 15 84 94 106 115 286 359 87 80 77 74 75 90 104 112 109 70 64 80 41 319 315 310 284 203 232 337 19 58 66 89 198 181 182 174 169 186 177 200 207 119 130 165 175 162 160 168 169 176 182 190 195 194 198 201 197 195 196 198 201 204 206 206 209 201 192 190 194 197 196 198 201 200 204 214 218 212 212 222 226 229 240 245 248 263 271 275 282 287 300 310 332
280 271 269 269 289 323 73 40 116 144 208 102 93 86 81 75 67 67 75 80 88 102 79 58 108 255 323 302 298 217 180 159 109 96 97 210 230 166 203 223 151 192 209 204 212 210 183 169 181 176 165 172 176 180 188 196 201 200 200 204 203 197 194 197 201 201 203 204 203 197 190 189 194 196 195 197 199 201 203 209 215 212 213 222 228 231 239 245 246 253 258 261 269 283 296 298 331
255 268 278 254 322 349 136 170 280 206 205 89 84 95 97 82 74 62 61 64 72 105 117 116 90 71 270 284 306 299 217 148 122 116 139 191 214 189 223 225 187 204 213 205 202 209 202 188 188 190 180 175 178 184 195 203 205 208 209 208 207 205 199 199 204 205 206 208 200 194 193 192 195 196 197 198 199 202 203 207 212 214 214 215 223 229 233 240 240 241 243 250 266 289 299 301 324
247 241 263 287 342 350 3 338 314 273 211 113 109 125 117 84 75 65 58 68 77 95 96 86 78 83 262 296 314 304 292 135 129 156 182 174 161 167 220 225 214 212 212 208 205 205 202 197 194 195 191 186 187 188 196 207 211 211 214 213 205 206 207 205 208 207 205 210 202 194 195 196 196 198 199 200 202 203 204 208 212 217 218 213 219 227 228 232 235 241 245 249 263 259 275 302 313
257 237 239 278 350 338 323 310 296 275 205 143 174 239 117 95 88 92 86 87 88 79 72 70 83 149 18 6 315 315 324 325 154 179 194 176 158 157 183 228 234 227 218 214 215 213 208 207 204 200 194 191 197 195 195 207 214 213 210 208 202 205 209 206 209 208 201 205 207 200 196 196 198 200 203 203 204 206 206 208 211 216 221 217 220 226 228 232 233 240 244 242 249 240 235 287 305
309 12 277 331 22 302 281 281 271 279 286 148 188 250 119 108 100 116 114 90 74 67 67 69 79 67 58 52 330 331 328 318 315 241 202 186 171 164 179 204 215 221 220 217 219 218 212 212 211 208 201 195 201 201 197 205 214 214 209 206 206 207 209 208 210 212 206 202 206 206 198 196 201 202 206 208 207 209 209 210 211 214 221 222 222 226 230 235 233 236 245 244 256 259 194 236 273
320 33 344 332 332 278 283 298 286 277 282 134 131 73 104 117 85 81 80 74 64 60 61 61 64 63 56 36 5 338 326 325 330 332 308 246 196 191 193 194 198 207 213 214 216 216 213 213 214 216 211 204 205 203 198 204 212 214 208 206 212 211 212 212 211 218 219 207 206 210 203 199 203 205 208 211 210 211 211 211 214 215 220 224 226 228 230 233 235 240 248 247 257 275 248 240 256
298 17 353 317 310 301 305 298 275 273 279 270 86 80 109 123 75 53 50 54 57 57 55 56 67 79 73 25 354 342 330 327 318 321 332 321 284 236 214 195 198 203 206 213 216 217 216 215 217 218 215 211 209 204 199 206 215 219 210 205 213 216 216 215 210 216 224 219 214 214 212 205 203 204 209 213 212 212 213 213 215 217 220 225 228 232 233 232 236 240 243 241 246 253 244 238 243
309 348 322 282 272 266 261 257 275 312 300 305 314 255 185 97 63 40 47 44 52 60 57 61 73 83 89 75 330 313 279 287 292 304 346 337 319 286 247 214 221 210 201 211 214 215 216 217 219 220 216 213 214 208 201 206 216 222 218 209 211 215 218 218 210 209 217 228 226 218 220 221 209 202 207 215 215 214 215 215 216 219 220 224 228 231 235 238 240 239 239 239 235 236 236 234 235
314 319 292 275 257 247 254 256 333 332 299 307 301 272 121 106 50 31 58 50 53 64 66 68 71 75 88 112 188 303 304 295 304 326 344 330 323 310 301 304 277 251 231 228 219 215 217 218 217 218 216 213 217 216 207 205 210 218 222 217 212 210 210 214 213 207 208 224 232 220 220 231 225 209 206 214 216 215 217 217 217 221 222 225 229 233 237 241 243 239 234 234 231 230 232 232 233
281 277 274 279 273 283 281 278 340 304 288 295 291 81 93 106 90 78 88 77 66 65 66 70 72 76 85 101 116 294 305 322 326 340 340 328 328 321 320 332 305 284 276 263 240 229 225 220 214 215 215 211 215 219 214 210 208 212 221 220 215 213 208 210 217 213 205 212 228 224 221 228 229 221 214 216 217 216 217 218 219 222 224 227 230 233 236 240 244 241 232 232 231 226 224 225 229
232 248 281 290 302 317 301 314 313 281 285 281 252 87 75 77 91 94 94 78 69 64 60 60 65 74 83 92 103 97 59 26 344 338 339 329 328 323 318 315 308 302 294 275 257 252 241 234 234 227 219 214 216 218 216 214 210 211 217 216 216 217 211 208 216 215 208 209 219 223 224 224 223 226 226 221 219 219 218 218 220 223 225 229 231 233 235 237 243 248 244 238 232 220 214 218 223
261 279 314 317 330 317 304 303 296 293 302 299 93 91 88 102 94 88 87 80 74 73 65 54 51 59 67 69 71 66 69 70 19 347 337 324 320 315 309 310 317 319 312 298 280 278 273 265 265 253 233 224 225 225 220 216 214 214 217 216 216 217 214 211 213 211 208 210 214 217 226 227 221 224 228 226 222 222 222 220 220 223 227 231 233 234 235 235 240 248 249 245 242 229 213 212 220
315 335 322 316 343 322 310 308 302 303 292 321 69 82 129 129 112 98 94 95 92 86 77 63 52 49 58 55 48 52 61 84 86 23 314 307 313 308 300 304 317 311 303 298 284 270 264 257 261 264 254 244 237 234 226 219 218 220 220 218 215 216 219 218 218 218 215 216 215 214 222 230 227 224 226 230 227 221 223 226 223 224 227 230 232 234 232 232 235 239 240 242 246 244 227 220 226
330 330 283 309 356 326 300 303 306 307 296 1 57 63 75 99 115 108 98 104 97 84 73 72 65 52 52 47 38 42 39 52 85 128 206 232 266 295 313 317 307 303 302 300 295 282 269 271 285 279 271 264 254 244 233 224 224 225 224 220 216 217 221 222 221 222 222 222 218 215 219 226 232 236 231 229 229 223 222 226 225 222 222 225 230 233 230 228 231 233 234 238 241 240 236 234 237
316 302 310 347 332 300 297 300 304 307 310 63 91 104 103 118 117 92 85 95 91 81 62 60 62 56 52 42 35 36 30 27 30 30 30 48 118 129 347 327 327 340 335 323 317 311 306 307 282 256 257 252 248 248 241 234 232 229 224 219 216 218 222 221 218 218 220 221 219 219 221 222 224 237 244 235 230 227 222 222 224 223 223 226 228 231 230 227 228 229 229 232 234 234 235 237 241
297 314 344 338 275 250 276 288 304 318 312 111 136 138 139 159 124 85 82 71 68 71 66 60 59 57 51 44 39 33 30 26 18 14 15 11 25 70 96 53 347 350 336 325 329 331 322 310 276 251 252 239 234 245 244 239 239 233 226 221 218 220 225 224 217 214 217 218 219 221 221 222 218 222 242 244 233 228 224 221 223 225 227 224 221 225 227 224 225 227 229 231 230 230 232 233 237
341 335 320 316 278 268 317 293 316 322 305 91 132 127 96 68 85 92 68 49 55 66 66 63 64 58 46 40 35 29 27 22 14 11 14 12 9 21 43 67 74 38 349 332 347 358 340 327 310 265 262 250 238 244 238 233 239 237 230 228 227 225 226 226 220 216 217 218 219 218 213 217 216 211 231 246 237 231 228 220 220 225 227 222 220 224 225 221 222 224 227 229 230 230 231 232 233
356 336 310 327 350 343 329 311 316 305 302 345 112 114 66 49 53 60 58 47 53 69 65 51 58 58 46 33 19 13 12 6 6 3 7 19 12 11 21 28 40 43 34 36 30 31 23 3 5 318 272 259 243 246 239 233 240 244 239 233 233 233 231 231 224 219 220 220 220 219 211 213 216 209 221 239 237 231 229 221 216 222 227 227 225 224 222 221 222 222 223 227 229 229 233 235 234
347 328 313 336 347 334 329 312 308 311 318 335 38 140 98 61 26 45 68 61 42 47 52 48 50 41 37 36 20 10 2 351 351 351 359 12 6 3 11 15 20 25 17 31 48 39 27 10 3 339 288 266 250 259 261 250 242 245 249 246 244 241 236 237 233 224 223 222 221 222 217 215 217 214 218 231 236 231 230 225 217 218 224 227 228 225 221 220 221 221 221 225 228 228 230 231 231
319 304 314 342 349 341 333 316 329 343 339 324 313 106 107 109 276 82 68 54 14 358 9 4 358 11 25 26 6 8 2 339 334 336 345 359 357 354 359 359 1 4 0 13 40 42 43 36 359 325 311 303 298 296 288 280 262 247 245 246 249 250 243 239 237 231 229 227 224 222 219 216 218 220 222 229 235 232 229 229 225 222 223 225 228 228 225 223 222 220 219 220 223 225 229 230 232